Temp
23 23 23 23 23 23 23 23 24 24 24 24 24 24 25 25 25 25 25 25 25 25 25 25 24 24 24 24 24 24 24 24 23 23 23 23 23 23 23 23 23 23
23 23 23 23 23 23 23 23 24 24 24 24 24 24 24 25 25 25 25 25 25 25 25 25 24 24 24 24 24 24 24 24 23 23 23 23 23 23 23 23 23 23
23 23 23 23 23 23 23 23 23 24 24 24 24 24 24 24 24 25 25 25 25 25 25 25 25 24 24 24 24 24 24 24 24 24 23 23 23 23 23 23 23 23
23 23 23 23 23 23 23 23 23 23 24 24 24 24 24 24 24 24 24 25 25 25 25 25 25 25 25 24 24 24 24 24 24 24 23 23 23 23 23 23 23 23
23 23 23 23 23 23 23 23 23 23 23 24 24 24 24 24 24 24 24 24 25 25 25 25 25 25 25 25 24 24 24 24 24 24 24 23 23 23 23 23 23 23
23 23 23 23 23 23 23 23 23 23 23 24 24 24 24 24 24 24 25 25 25 25 25 25 25 25 25 25 24 24 24 24 24 24 24 24 24 23 23 23 23 23
23 23 23 23 23 23 23 23 23 23 23 23 23 24 24 24 24 24 25 25 25 25 25 25 25 25 25 25 24 25 25 25 24 24 24 24 24 24 23 23 23 23
23 23 23 23 23 23 23 23 23 23 23 23 23 23 24 24 24 25 25 25 25 25 25 25 25 25 25 25 24 25 25 25 25 24 24 24 24 24 24 24 23 23
23 23 23 23 23 23 23 23 23 23 23 23 23 23 24 24 24 24 25 25 25 25 24 24 25 25 25 24 24 25 25 25 25 24 24 24 24 24 24 24 23 23
23 23 23 23 23 23 23 23 23 23 23 23 23 23 24 24 24 24 24 24 24 24 24 24 24 25 24 24 25 25 25 25 25 25 24 24 24 24 24 24 23 23
23 23 23 23 23 23 23 23 23 23 23 23 23 23 24 24 24 24 24 24 24 24 24 24 24 25 24 24 24 24 24 25 25 25 25 24 24 24 24 24 23 24
23 23 23 23 23 23 23 23 23 23 23 23 23 23 23 23 24 24 24 24 24 24 24 24 24 24 24 24 24 24 24 24 24 24 24 24 24 24 24 24 24 24
23 23 23 23 23 23 23 23 23 23 23 23 23 23 23 23 23 23 23 24 24 24 24 24 24 24 24 24 24 24 24 24 24 24 24 24 24 24 24 24 24 24
23 23 23 23 23 23 23 23 23 23 23 23 23 23 23 23 23 23 23 23 23 23 24 24 24 24 24 24 24 24 24 24 24 24 24 24 24 24 24 24 24 24
24 24 23 23 23 23 23 23 23 23 23 23 23 23 23 23 23 23 23 23 23 23 23 23 23 23 24 24 24 24 24 24 24 23 23 23 23 23 23 24 24 24
24 24 23 23 23 23 23 23 23 23 23 23 23 23 23 23 23 23 23 23 23 23 23 23 23 23 24 24 24 24 24 24 24 23 23 23 23 23 23 23 23 23
24 24 23 23 23 23 23 23 23 23 23 23 23 23 23 23 23 23 23 23 23 23 23 23 23 23 23 24 24 24 24 24 23 23 23 23 23 23 23 23 23 23
24 24 24 23 23 23 23 23 23 23 23 23 23 23 23 23 23 23 23 23 23 23 23 23 23 23 23 23 24 24 24 23 23 23 23 23 23 23 23 23 23 23
24 24 24 23 23 23 23 23 23 23 23 23 23 23 23 23 23 23 23 23 23 23 23 23 23 23 23 23 24 24 24 23 23 23 23 23 23 23 23 23 23 23
24 24 24 24 24 23 23 23 23 23 23 23 23 23 23 23 23 23 23 23 23 23 23 23 23 23 23 24 24 24 24 24 23 23 23 23 23 23 23 23 23 23
24 24 24 24 24 23 23 23 23 23 23 23 23 23 23 23 23 23 23 23 23 23 23 23 23 23 24 24 24 24 24 23 23 23 23 23 23 23 23 23 23 23
24 24 24 24 24 23 23 23 23 23 23 23 23 23 23 23 23 23 23 23 23 23 23 23 23 24 24 24 24 24 24 23 23 23 23 23 23 23 23 23 23 23
25 24 24 24 24 23 23 23 23 23 23 23 23 23 23 23 23 23 23 23 23 23 23 23 23 24 24 24 24 24 23 23 23 23 23 23 23 24 24 23 23 23
25 25 24 24 24 24 23 23 23 23 23 23 23 23 23 23 23 23 23 23 23 23 23 23 23 24 24 24 24 24 23 23 23 23 23 23 23 24 24 24 24 23
25 25 25 24 24 24 24 24 24 24 24 23 23 23 23 23 23 23 23 23 23 23 23 23 23 24 24 24 24 24 23 24 24 23 23 23 23 23 23 23 23 23
25 25 25 25 25 24 24 24 24 24 24 23 23 23 23 23 23 23 23 23 23 23 23 23 23 24 24 24 24 24 24 24 24 23 23 23 23 23 23 23 23 23
Height
812 815 817 820 822 824 826 828 830 833 835 836 838 840 841 843 845 847 849 850 851 852 853 854 855 856 856 857 858 859 860 861 862 863 864 864 865 865 866 867 867 868
810 812 815 818 820 822 824 826 828 830 832 834 836 838 840 841 843 845 847 849 850 851 852 852 853 854 855 855 857 857 858 859 860 861 862 863 863 864 864 865 866 867
806 809 812 815 817 819 821 824 826 828 830 833 834 837 838 840 841 843 845 847 848 849 850 851 851 852 853 854 855 856 856 857 858 860 861 861 862 863 863 864 864 865
803 806 809 812 814 817 820 822 824 826 828 830 832 834 836 838 840 841 843 844 846 847 848 849 849 850 851 852 853 854 854 856 857 858 859 860 860 861 861 862 863 863
800 803 806 809 812 815 818 819 822 824 826 828 830 832 834 836 837 839 840 842 843 844 846 847 847 848 849 850 851 852 853 854 855 856 857 858 859 859 860 861 861 861
798 800 803 806 809 812 815 816 819 821 823 825 827 830 832 833 835 836 838 839 840 842 843 844 845 846 847 848 849 850 851 852 853 854 855 856 857 857 858 859 859 859
795 798 801 804 806 809 811 813 816 818 820 823 825 827 829 831 833 834 835 836 837 839 840 842 843 844 845 846 847 848 848 850 851 852 853 854 855 856 856 857 857 857
792 795 798 801 804 806 808 810 813 815 818 820 822 824 826 828 830 831 833 834 835 836 837 839 840 841 843 844 845 846 846 848 849 850 851 851 852 853 854 855 855 854
789 792 795 798 800 803 805 807 809 812 815 817 819 822 824 825 827 828 830 831 832 834 835 836 838 839 840 841 842 843 844 845 846 847 848 849 850 851 851 852 852 852
786 789 792 794 797 799 801 804 807 809 812 814 816 819 820 822 824 826 827 828 830 831 832 833 835 836 837 839 839 841 842 843 844 845 846 847 847 848 849 850 850 850
783 786 788 791 793 796 798 801 804 806 809 811 813 815 817 819 821 823 824 825 826 828 829 830 832 833 835 836 837 838 839 840 841 842 843 844 845 846 846 847 847 847
779 782 785 787 790 792 795 798 801 803 805 807 810 812 814 816 818 819 821 822 823 824 826 827 829 830 831 833 834 836 837 838 839 840 841 841 842 843 844 844 844 844
775 778 781 784 786 789 792 795 797 800 802 804 806 808 811 812 814 816 817 818 820 821 823 824 826 827 828 830 831 833 834 835 835 837 838 839 840 840 841 842 841 842
771 774 777 780 783 786 789 791 794 796 799 801 803 805 807 808 810 812 814 815 817 818 819 821 822 824 825 827 828 829 830 831 832 834 835 836 837 838 838 839 838 839
767 771 774 777 781 783 786 788 790 793 795 798 800 801 803 805 807 809 811 812 814 815 816 818 819 820 821 822 824 825 827 828 829 831 832 833 834 835 835 835 835 836
765 768 772 775 778 780 782 785 787 790 792 794 796 797 799 801 803 805 807 808 810 811 813 814 815 816 817 818 820 822 823 825 826 827 828 830 831 831 832 832 832 833
762 765 769 771 774 776 779 781 784 786 788 790 792 793 795 798 800 801 803 804 806 808 809 810 811 811 813 814 816 818 820 822 823 824 825 826 827 828 828 829 829 830
759 762 765 768 770 773 775 778 780 783 785 787 788 790 792 793 795 797 798 800 802 804 805 806 807 808 809 811 813 815 817 818 819 821 822 823 824 824 825 826 826 827
756 759 761 764 766 769 772 774 777 779 780 782 784 786 788 789 791 792 793 796 798 799 800 802 803 804 806 808 809 811 813 815 816 817 818 819 820 821 822 822 823 823
752 755 757 760 762 765 768 770 772 774 776 778 780 782 784 785 786 787 789 791 793 794 796 797 799 800 802 804 805 807 809 811 812 813 815 815 816 817 818 818 819 820
748 750 753 755 758 761 763 766 768 769 771 774 776 778 779 780 781 783 784 786 788 790 792 793 793 795 798 799 801 803 805 807 808 810 811 812 812 813 814 814 815 816
743 746 748 751 754 757 759 762 764 765 767 770 772 773 775 776 778 779 780 782 784 786 787 788 788 791 793 795 797 799 802 803 805 806 807 807 808 808 809 810 811 813
739 742 744 747 750 753 755 757 759 761 763 765 768 769 771 772 774 775 776 778 780 782 783 783 784 786 788 790 793 796 798 800 801 802 802 803 803 804 805 806 807 808
735 737 740 743 746 748 751 753 755 757 759 761 763 765 766 768 769 771 773 774 776 777 778 779 780 782 784 787 789 792 795 796 797 798 798 799 799 799 800 801 802 803
731 733 736 739 742 744 746 748 750 752 754 757 759 761 762 764 766 768 769 770 772 773 775 776 777 778 780 783 785 788 790 792 793 793 794 794 795 795 796 797 798 799
727 730 733 735 738 739 741 743 746 748 751 754 756 757 759 761 762 764 765 766 768 770 771 773 774 775 776 779 781 784 786 787 788 788 789 790 791 791 792 793 794 795
Wind_Speed
37 36 35 35 34 33 32 32 31 31 31 31 31 31 31 30 28 26 26 25 24 24 24 22 20 19 19 19 20 20 20 18 17 16 15 16 16 16 17 17 17 17
38 37 35 34 33 33 33 33 32 32 32 32 32 32 31 30 29 27 26 25 24 24 24 23 21 20 19 19 20 21 20 20 19 18 17 17 17 18 18 18 17 17
39 38 36 35 34 34 33 33 33 32 32 32 32 31 31 31 30 28 27 25 24 24 24 24 23 22 21 20 20 21 21 21 20 20 19 18 17 18 19 18 17 18
39 38 38 37 36 35 33 32 32 32 32 32 32 32 31 31 30 29 28 27 25 25 25 25 24 23 22 21 20 21 21 21 20 20 20 20 19 19 19 19 19 19
39 39 38 37 36 34 32 32 33 33 33 33 33 32 31 31 30 30 29 28 28 27 26 26 26 25 24 22 22 22 22 22 21 20 21 21 21 20 20 20 20 20
38 38 38 37 36 34 33 33 34 33 33 33 32 31 31 31 30 30 30 29 29 28 28 28 27 26 26 24 24 23 23 23 22 22 22 22 22 22 21 21 22 22
37 38 37 36 35 34 34 35 34 33 33 32 31 31 31 31 31 30 30 30 29 29 28 28 28 28 27 27 26 25 24 24 24 24 24 24 23 23 23 23 24 24
37 37 37 36 35 35 35 35 34 34 33 32 31 31 31 31 32 31 31 31 30 30 29 29 29 28 28 28 27 27 26 26 26 26 26 26 25 25 25 25 25 26
37 37 37 36 36 36 36 36 35 33 33 32 32 32 32 32 33 33 33 33 32 31 30 30 30 29 29 28 28 28 28 27 27 27 27 27 27 27 27 26 27 28
37 36 36 36 36 37 36 36 35 33 32 32 32 32 32 33 33 33 33 33 33 33 32 31 31 31 30 29 29 29 28 28 28 28 28 28 28 29 28 28 28 29
37 36 36 36 37 37 37 36 35 33 32 33 33 33 33 33 34 34 34 34 34 34 34 33 33 32 32 31 31 30 29 29 29 29 29 29 29 30 29 29 29 31
37 36 36 37 37 38 37 36 35 34 34 34 34 34 34 34 34 34 34 35 35 35 35 34 34 33 33 32 31 31 30 30 30 30 31 30 31 30 30 31 31 32
38 38 38 38 38 38 37 36 36 35 35 35 35 34 34 34 34 34 35 35 36 36 35 35 34 34 34 33 32 32 32 32 32 31 32 32 32 32 31 32 32 33
39 39 39 38 38 37 36 36 36 36 36 35 35 34 35 35 35 35 35 35 35 35 35 35 34 34 34 34 33 33 33 33 33 32 32 32 32 33 33 33 34 34
38 38 38 37 36 35 36 36 36 36 36 35 35 35 36 36 35 35 34 34 34 35 34 34 34 35 35 35 35 34 34 34 33 32 32 32 32 32 33 34 35 35
37 36 35 35 35 36 36 36 36 35 35 35 35 36 36 35 34 34 34 34 35 34 34 33 34 36 37 37 36 35 34 34 33 33 32 32 31 32 33 34 34 35
35 35 34 35 36 36 36 36 36 35 35 36 36 36 36 35 34 34 35 35 35 34 34 34 35 37 37 37 37 36 35 34 33 33 32 32 32 32 33 34 34 34
34 34 34 35 36 36 36 36 36 35 35 36 36 36 36 36 35 35 36 36 35 34 35 35 36 38 38 37 37 37 36 35 34 33 32 32 32 33 33 34 34 34
34 34 34 35 36 37 36 36 35 36 36 36 36 37 36 36 36 37 37 36 35 35 36 36 36 38 38 38 38 37 37 36 35 34 33 32 32 33 33 34 34 34
35 35 36 37 37 37 36 36 36 37 37 37 37 36 35 36 37 38 38 37 37 37 37 36 37 38 38 38 38 38 37 36 36 35 34 34 34 34 34 35 34 34
36 36 37 37 37 37 37 37 37 37 38 37 37 36 37 38 38 38 38 38 37 37 37 37 38 39 39 39 39 38 37 36 36 35 35 35 35 35 36 36 35 34
37 37 37 37 37 36 36 36 37 37 38 37 37 37 37 37 37 37 37 38 37 37 36 37 39 40 40 40 40 38 36 35 35 35 35 35 36 37 37 37 36 35
37 38 37 37 36 35 35 36 37 37 38 37 36 36 36 36 37 37 38 37 36 36 36 38 40 40 40 40 40 38 36 34 34 35 35 36 37 38 37 37 37 37
38 39 38 37 35 35 36 37 37 38 38 37 37 36 36 37 37 37 37 36 36 37 38 38 39 40 40 39 39 37 36 35 35 35 35 36 37 37 38 38 38 38
39 39 38 37 36 36 37 38 38 38 38 37 36 37 36 36 36 35 35 35 36 37 37 37 38 39 39 38 38 37 36 36 35 35 35 35 35 36 36 37 37 37
37 38 38 36 36 37 38 39 38 37 35 34 35 36 35 34 34 34 34 34 35 35 35 36 37 38 38 38 37 36 36 36 36 35 35 34 34 35 35 34 35 35
Wind_Direction
212 213 214 216 217 219 219 221 222 223 224 225 226 228 230 231 233 233 234 236 238 239 240 243 246 247 248 246 246 246 246 248 249 250 252 254 254 256 258 259 260 262
211 213 214 215 217 219 221 222 224 224 226 227 230 232 233 234 235 235 236 236 239 240 241 243 246 247 249 247 244 243 244 246 247 248 250 253 255 256 258 259 260 262
211 212 213 215 217 219 220 222 224 225 227 229 231 233 235 236 236 237 237 236 238 240 240 243 246 248 250 249 246 244 244 246 247 249 251 254 257 258 259 260 262 263
210 211 212 215 217 218 219 221 223 225 227 229 232 234 236 238 238 238 238 237 238 239 240 243 246 248 250 250 248 245 245 247 249 252 254 256 258 260 261 262 264 265
210 211 212 214 216 217 218 220 222 225 227 229 232 234 236 237 237 238 238 238 238 239 240 242 245 248 249 250 249 247 247 248 250 253 256 257 258 260 262 264 266 267
210 211 212 213 214 214 216 220 223 224 227 229 231 233 235 235 237 238 239 239 239 240 240 241 244 247 248 249 248 248 248 250 252 254 257 259 260 260 261 263 265 267
210 211 212 213 213 214 216 220 222 224 227 229 230 232 233 234 235 237 239 241 241 240 241 241 243 245 247 248 248 248 249 251 253 255 257 260 261 261 261 261 263 265
210 211 211 212 212 214 217 220 221 224 226 227 229 232 233 234 236 237 239 241 241 241 242 242 244 246 247 247 247 248 250 251 253 254 255 258 259 260 261 261 261 263
209 210 211 211 212 214 217 219 221 223 224 226 228 231 233 235 237 238 239 240 240 241 242 242 244 246 246 246 246 248 249 251 253 253 255 256 257 259 261 260 260 261
208 209 210 210 212 214 216 218 220 220 222 225 227 229 232 235 237 238 238 238 239 240 241 242 244 245 245 245 246 248 249 251 253 254 255 256 257 259 260 260 259 260
208 209 209 210 211 214 216 218 218 218 220 223 225 227 230 233 234 236 236 236 238 239 240 242 244 244 244 245 247 248 249 251 252 254 256 257 258 259 259 259 260 261
207 208 209 210 212 214 216 217 217 218 219 221 223 225 228 230 232 234 235 236 238 239 240 242 243 244 244 245 247 248 249 250 251 252 254 256 258 259 259 260 260 262
207 208 209 211 213 214 215 216 216 217 219 220 222 224 226 228 230 232 234 236 238 239 240 241 242 243 244 245 246 247 248 249 249 250 252 254 257 258 260 261 261 262
207 209 210 211 213 214 214 215 216 217 219 220 222 223 226 228 230 232 234 236 238 239 239 240 240 241 243 244 245 246 246 247 247 247 249 252 254 257 259 260 261 262
207 208 210 211 212 213 214 215 216 217 218 219 221 223 226 228 230 231 233 235 237 238 239 239 238 240 241 242 242 243 243 245 245 246 248 249 251 254 257 258 260 261
206 207 208 210 210 212 214 214 215 217 218 219 221 223 226 227 229 230 232 234 236 237 238 237 237 239 241 242 242 242 242 243 244 246 247 248 249 251 254 257 258 260
205 206 207 208 210 212 213 214 215 216 217 219 221 223 225 226 227 229 231 233 235 236 237 237 238 240 241 242 243 243 242 242 243 246 247 248 249 251 253 256 258 260
203 204 206 208 210 211 213 214 215 215 217 219 220 222 224 225 226 228 231 233 233 235 237 237 239 241 242 242 243 243 243 242 243 245 246 247 249 251 253 255 257 259
203 203 205 208 210 211 212 213 213 214 217 219 221 223 224 224 226 228 230 232 232 234 236 237 239 242 243 243 244 244 244 243 243 244 245 246 249 250 253 255 256 258
202 203 206 208 210 211 212 212 213 215 217 219 221 223 223 224 226 228 230 231 232 234 236 238 240 242 243 244 244 245 245 244 244 243 244 246 248 250 252 254 255 256
202 204 207 209 210 211 211 212 213 215 217 218 220 221 223 225 227 228 229 230 231 233 236 238 241 242 243 244 245 245 245 244 244 243 244 246 248 250 251 253 254 255
202 204 207 209 209 210 210 212 214 216 217 218 219 221 223 226 227 228 230 231 231 232 233 237 241 243 243 244 245 245 244 243 243 243 244 246 248 250 251 253 254 254
203 205 207 209 209 208 210 212 214 217 218 218 218 220 222 224 226 228 230 231 231 231 232 236 240 243 243 244 245 244 243 242 242 242 243 245 248 252 252 253 254 253
204 206 207 208 208 208 211 213 215 217 219 219 218 220 222 224 226 228 230 231 231 231 232 234 239 243 244 244 245 243 241 241 241 241 242 243 247 251 252 253 254 254
205 207 208 208 208 210 213 215 216 218 219 219 219 221 223 225 226 227 229 231 232 233 234 235 238 243 244 244 244 243 241 240 240 239 239 241 245 248 251 252 253 254
206 207 209 209 210 212 215 216 217 218 219 218 220 222 224 226 226 227 229 231 232 233 234 235 237 241 243 244 244 242 240 239 238 236 237 239 242 245 248 251 252 254